This demonstration page uses our WeatherBlox Daily Observations layout. Learn more.

39.29038, -76.61219

Hourly Observations for October 20, 2015

Temp ( °F °C ) Dew Point ( °F °C ) Humidity (%) Winds ( mph kmh ) Pressure ( in mb ) Visibility ( mi km ) Precip ( " mm )
12:54 am 00:54 undefined 46 7.8 34 1.1 63 63 undefined N/A 30.34 1028 N/A 0 0
1:54 am 01:54 undefined 44 6.7 34 1.1 68 68 undefined N/A 30.34 1027 N/A 0 0
2:54 am 02:54 undefined 44 6.7 34 1.1 68 68 undefined N/A 30.33 1027 N/A 0 0
3:54 am 03:54 undefined 44 6.7 35 1.7 71 71 undefined N/A 30.32 1027 N/A 0 0
4:54 am 04:54 undefined 44 6.7 35 1.7 71 71 undefined N/A 30.32 1027 N/A 0 0
5:54 am 05:54 undefined 44 6.7 35 1.7 71 71 undefined N/A 30.31 1026 N/A 0 0
6:54 am 06:54 undefined 44 6.7 34 1.1 68 68 undefined N/A 30.32 1027 N/A 0 0
7:54 am 07:54 undefined 46 7.8 35 1.7 66 66 undefined N/A 30.32 1027 N/A 0 0
8:54 am 08:54 undefined 49 9.4 34 1.1 56 56 undefined N/A 30.34 1028 N/A 0 0
9:54 am 09:54 undefined 52 11.1 35 1.7 53 53 undefined N/A 30.34 1028 N/A 0 0
10:54 am 10:54 undefined 56 13.3 37 2.8 49 49 undefined N/A 30.34 1028 N/A 0 0
11:54 am 11:54 undefined 61 16.1 38 3.3 43 43 undefined N/A 30.33 1027 N/A 0 0
12:54 pm 12:54 undefined 65 18.3 40 4.4 40 40 undefined N/A 30.31 1026 N/A 0 0
1:54 pm 13:54 undefined 69 20.6 39 3.9 33 33 undefined N/A 30.28 1025 N/A 0 0
2:54 pm 14:54 undefined 71 21.7 34 1.1 26 26 undefined N/A 30.24 1024 N/A 0 0
3:54 pm 15:54 undefined 71 21.7 36 2.2 28 28 undefined N/A 30.24 1024 N/A 0 0
4:54 pm 16:54 undefined 70 21.1 32 0 25 25 undefined N/A 30.24 1024 N/A 0 0
5:54 pm 17:54 undefined 68 20 33 0.6 27 27 undefined N/A 30.25 1024 N/A 0 0
6:54 pm 18:54 undefined 65 18.3 36 2.2 34 34 undefined N/A 30.26 1025 N/A 0 0
7:54 pm 19:54 undefined 62 16.7 44 6.7 52 52 undefined N/A 30.27 1025 N/A 0 0
8:54 pm 20:54 undefined 59 15 47 8.3 64 64 undefined N/A 30.27 1025 N/A 0 0
9:54 pm 21:54 undefined 59 15 44 6.7 58 58 undefined N/A 30.28 1025 N/A 0 0
10:54 pm 22:54 undefined 57 13.9 43 6.1 60 60 undefined N/A 30.28 1026 N/A 0 0
11:54 pm 23:54 undefined 56 13.3 44 6.7 65 65 undefined N/A 30.29 1026 N/A 0 0

Powered by AerisWeather